BEIDOU 8 (C08)

Last updated on Mon Feb 13 2023 00:03:21 GMT+0000 (Coordinated Universal Time)

1 37384U 11013A 23043.49685513 -.00000150 00000+0 00000+0 0 9999 2 37384 60.6476 51.8885 0024535 188.6714 186.5462 1.00290740 43434

Satellite not in orbit

BEIDOU 8 (C08)